| time (UTC) | temp F | wind direction | speed MPH | gust MPH | rain 1hr in | rain 24hr in | rain mn in | humidity % | barometer mb |
| 20260903230059 | 80 | 248 | 0.0 | 0.0 | 0.00 | 0.21 | 0.20 | 52 | 1010.2 |
| 20260903224558 | 79 | 248 | 0.0 | 0.0 | 0.00 | 0.21 | 0.20 | 52 | 1010.2 |
| 20260903223057 | 79 | 248 | 0.0 | 0.0 | 0.00 | 0.21 | 0.20 | 53 | 1010.1 |
| 20260903221558 | 79 | 255 | 0.0 | 0.0 | 0.00 | 0.21 | 0.20 | 52 | 1010.0 |
| 20260903220105 | 79 | 260 | 0.0 | 0.0 | 0.00 | 0.21 | 0.20 | 45 | 1010.4 |
| 20260903214553 | 79 | 264 | 0.0 | 0.0 | 0.01 | 0.21 | 0.20 | 42 | 1010.5 |
| 20260903213058 | 79 | 264 | 0.0 | 0.0 | 0.01 | 0.21 | 0.20 | 42 | 1010.7 |
| 20260903211555 | 78 | 264 | 0.0 | 0.0 | 0.02 | 0.21 | 0.20 | 44 | 1010.8 |
| 20260903210053 | 78 | 264 | 0.0 | 0.0 | 0.03 | 0.21 | 0.20 | 47 | 1010.9 |
| 20260903204546 | 78 | 264 | 0.0 | 0.0 | 0.03 | 0.20 | 0.19 | 48 | 1011.2 |
| 20260903203106 | 77 | 264 | 0.0 | 0.0 | 0.06 | 0.20 | 0.19 | 48 | 1011.4 |
| 20260903201546 | 77 | 264 | 0.0 | 0.0 | 0.07 | 0.20 | 0.19 | 48 | 1011.3 |
| 20260903200044 | 77 | 264 | 0.0 | 0.0 | 0.10 | 0.18 | 0.17 | 50 | 1011.3 |
| 20260903194545 | 77 | 264 | 0.0 | 0.0 | 0.16 | 0.17 | 0.16 | 55 | 1011.4 |
| 20260903193042 | 77 | 264 | 0.0 | 0.0 | 0.13 | 0.14 | 0.13 | 60 | 1011.2 |
| 20260903191537 | 78 | 265 | 0.0 | 0.0 | 0.13 | 0.14 | 0.13 | 64 | 1011.6 |
| 20260903190034 | 78 | 260 | 0.0 | 0.0 | 0.11 | 0.12 | 0.11 | 71 | 1011.5 |
| 20260903184534 | 81 | 280 | 0.0 | 0.0 | 0.00 | 0.01 | 0.00 | 73 | 1011.7 |
| 20260903183028 | 83 | 276 | 0.0 | 0.0 | 0.00 | 0.01 | 0.01 | 73 | 1011.9 |
| 20260903181525 | 85 | 160 | 0.0 | 0.0 | 0.00 | 0.01 | 0.01 | 73 | 1011.7 |
| 20260903180026 | 85 | 156 | 0.0 | 0.0 | 0.00 | 0.01 | 0.01 | 72 | 1011.7 |
| 20260903174526 | 86 | 160 | 0.0 | 0.0 | 0.00 | 0.01 | 0.01 | 72 | 1012.0 |
| 20260903173025 | 87 | 155 | 0.0 | 0.0 | 0.00 | 0.01 | 0.01 | 72 | 1011.8 |
| 20260903171524 | 88 | 129 | 0.0 | 0.0 | 0.00 | 0.01 | 0.01 | 69 | 1011.8 |
| 20260903170026 | 89 | 148 | 0.0 | 0.0 | 0.00 | 0.01 | 0.01 | 70 | 1011.8 |
| 20260903164524 | 89 | 148 | 0.0 | 0.0 | 0.00 | 0.01 | 0.01 | 68 | 1012.0 |
| 20260903163024 | 89 | 149 | 0.0 | 0.0 | 0.00 | 0.01 | 0.01 | 69 | 1012.2 |
| 20260903161525 | 87 | 155 | 0.0 | 0.0 | 0.00 | 0.01 | 0.01 | 72 | 1012.0 |
| 20260903160030 | 85 | 165 | 0.0 | 0.0 | 0.00 | 0.01 | 0.01 | 73 | 1012.1 |
| 20260903154526 | 87 | 162 | 0.0 | 0.0 | 0.00 | 0.01 | 0.01 | 72 | 1012.0 |
| 20260903153021 | 87 | 130 | 0.0 | 0.0 | 0.00 | 0.01 | 0.01 | 72 | 1011.9 |
| 20260903151522 | 86 | 141 | 0.0 | 0.0 | 0.00 | 0.01 | 0.01 | 71 | 1012.1 |
| 20260903150026 | 85 | 124 | 0.0 | 0.0 | 0.00 | 0.01 | 0.01 | 70 | 1012.3 |
| 20260903144539 | 85 | 124 | 0.0 | 0.0 | 0.00 | 0.01 | 0.01 | 68 | 1012.3 |
| 20260903143032 | 84 | 124 | 0.0 | 0.0 | 0.00 | 0.01 | 0.01 | 68 | 1012.2 |
| 20260903141520 | 84 | 124 | 0.0 | 0.0 | 0.00 | 0.01 | 0.01 | 69 | 1012.1 |
| 20260903140023 | 84 | 132 | 0.0 | 0.0 | 0.00 | 0.01 | 0.01 | 70 | 1012.2 |
| 20260903134519 | 83 | 118 | 0.0 | 0.0 | 0.00 | 0.01 | 0.01 | 71 | 1012.1 |
| 20260903133019 | 83 | 115 | 0.0 | 0.0 | 0.00 | 0.01 | 0.01 | 71 | 1011.9 |
| 20260903131518 | 0 | 0.0 | 0.0 | 0.00 | 0.01 | 0.01 | 1011.9 | ||
| 20260903130014 | 0 | 0.0 | 0.0 | 0.00 | 0.01 | 0.01 | 1011.8 | ||
| 20260903124509 | 0 | 0.0 | 0.0 | 0.00 | 0.01 | 0.01 | 1011.7 | ||
| 20260903123006 | 0 | 0.0 | 0.0 | 0.00 | 0.01 | 0.01 | 1011.4 | ||
| 20260903121512 | 0 | 0.0 | 0.0 | 0.00 | 0.01 | 0.01 | 1011.2 | ||
| 20260903120106 | 0 | 0.0 | 0.0 | 0.00 | 0.01 | 0.01 | 1011.1 | ||
| 20260903114555 | 0 | 0.0 | 0.0 | 0.00 | 0.01 | 0.01 | 1011.0 | ||
| 20260903113130 | 0 | 0.0 | 0.0 | 0.00 | 0.01 | 0.01 | 1011.1 | ||
| 20260903110043 | 0 | 0.0 | 0.0 | 0.00 | 0.01 | 0.01 | 1011.1 | ||
| 20260903104554 | 0 | 0.0 | 0.0 | 0.00 | 0.01 | 0.01 | 1010.9 | ||
| 20260903103037 | 0 | 0.0 | 0.0 | 0.00 | 0.01 | 0.01 | 1010.8 | ||
| 20260903100036 | 0 | 0.0 | 0.0 | 0.00 | 0.01 | 0.01 | 1010.8 | ||
| 20260903094545 | 0 | 0.0 | 0.0 | 0.00 | 0.01 | 0.01 | 1010.8 | ||
| 20260903093030 | 0 | 0.0 | 0.0 | 0.00 | 0.01 | 0.01 | 1010.8 | ||
| 20260903090023 | 0 | 0.0 | 0.0 | 0.00 | 0.01 | 0.01 | 1010.8 | ||
| 20260903084519 | 0 | 0.0 | 0.0 | 0.00 | 0.01 | 0.01 | 1010.7 | ||
| 20260903083015 | 0 | 0.0 | 0.0 | 0.00 | 0.01 | 0.01 | 1010.6 | ||
| 20260903080005 | 0 | 0.0 | 0.0 | 0.00 | 0.01 | 0.01 | 1010.5 | ||
| 20260903074557 | 0 | 0.0 | 0.0 | 0.00 | 0.01 | 0.01 | 1010.5 | ||
| 20260903073053 | 0 | 0.0 | 0.0 | 0.00 | 0.01 | 0.01 | 1010.5 | ||
| 20260903070046 | 0 | 0.0 | 0.0 | 0.00 | 0.01 | 0.01 | 1010.7 | ||
| 20260903064542 | 0 | 0.0 | 0.0 | 0.01 | 0.01 | 0.01 | 1010.9 | ||
| 20260903063037 | 0 | 0.0 | 0.0 | 0.01 | 0.01 | 0.01 | 1011.0 | ||
| 20260903060033 | 82 | 126 | 0.0 | 0.0 | 0.01 | 0.01 | 0.01 | 61 | 1011.4 |
| 20260903054532 | 83 | 126 | 0.0 | 0.0 | 0.00 | 0.00 | 0.00 | 62 | 1011.6 |
| 20260903053028 | 83 | 126 | 0.0 | 0.0 | 0.00 | 0.00 | 0.00 | 65 | 1011.8 |
| 20260903050025 | 85 | 126 | 0.0 | 0.0 | 0.00 | 0.00 | 0.00 | 71 | 1012.2 |
| 20260903044533 | 85 | 126 | 0.0 | 0.0 | 0.00 | 0.00 | 0.00 | 71 | 1012.3 |
| 20260903043056 | 85 | 127 | 0.0 | 0.0 | 0.00 | 0.00 | 0.00 | 72 | 1012.3 |
| 20260903040022 | 85 | 130 | 0.0 | 0.0 | 0.00 | 0.00 | 0.00 | 72 | 1012.1 |
| 20260903034534 | 85 | 130 | 0.0 | 0.0 | 0.00 | 0.00 | 0.00 | 72 | 1011.7 |
| 20260903033019 | 85 | 119 | 0.0 | 0.0 | 0.00 | 0.00 | 0.00 | 72 | 1011.6 |
| 20260903030011 | 86 | 119 | 0.0 | 0.0 | 0.00 | 0.00 | 0.00 | 70 | 1011.1 |
| 20260903024508 | 86 | 119 | 0.0 | 0.0 | 0.00 | 0.00 | 0.00 | 70 | 1010.9 |
| 20260903023009 | 86 | 128 | 0.0 | 0.0 | 0.00 | 0.00 | 0.00 | 68 | 1010.6 |
| 20260903020012 | 85 | 143 | 0.0 | 0.0 | 0.00 | 0.00 | 0.00 | 70 | 1010.2 |
| 20260903014503 | 86 | 158 | 0.0 | 0.0 | 0.00 | 0.00 | 0.00 | 70 | 1010.2 |
| 20260903013109 | 87 | 125 | 0.0 | 0.0 | 0.00 | 0.00 | 0.00 | 69 | 1010.2 |
| 20260903010055 | 90 | 127 | 0.0 | 0.0 | 0.00 | 0.00 | 0.00 | 60 | 1009.9 |
| 20260903004554 | 90 | 115 | 0.0 | 0.0 | 0.00 | 0.00 | 0.00 | 58 | 1009.2 |
| 20260903003053 | 91 | 114 | 0.0 | 0.0 | 0.00 | 0.00 | 0.00 | 57 | 1008.9 |
| 20260903000048 | 92 | 113 | 0.0 | 0.0 | 0.00 | 0.00 | 0.00 | 57 | 1008.6 |
| 20260902234602 | 93 | 117 | 0.0 | 0.0 | 0.00 | 0.00 | 0.00 | 57 | 1008.4 |
| 20260902233043 | 94 | 115 | 0.0 | 0.0 | 0.00 | 0.00 | 0.00 | 56 | 1008.4 |